GFSFLT1_prec_precacc6_105.txt.gz
Total_Precipitation_Accumulation
0.00 0.00 0.00 0.00 0.00 0.00 0.00 0.00 0.00 0.00 0.00 0.00 0.01 0.05 0.09 0.10 0.05 0.04 0.06 0.12 0.11 0.05 0.04 0.02 0.10 0.04 0.04 0.01 0.00 0.00 0.00 0.00
0.00 0.00 0.00 0.00 0.00 0.00 0.00 0.00 0.00 0.00 0.00 0.01 0.01 0.01 0.04 0.10 0.09 0.04 0.03 0.04 0.07 0.04 0.01 0.01 0.04 0.03 0.05 0.02 0.00 0.00 0.00 0.00
0.00 0.00 0.00 0.00 0.00 0.00 0.00 0.00 0.00 0.00 0.00 0.00 0.00 0.01 0.05 0.16 0.27 0.13 0.03 0.03 0.05 0.03 0.01 0.01 0.01 0.03 0.03 0.01 0.00 0.00 0.00 0.00
0.00 0.00 0.00 0.00 0.00 0.00 0.00 0.00 0.00 0.00 0.00 0.00 0.04 0.05 0.19 0.35 0.54 0.47 0.10 0.07 0.06 0.04 0.02 0.02 0.01 0.01 0.01 0.01 0.00 0.00 0.00 0.00
0.00 0.00 0.00 0.00 0.00 0.00 0.00 0.00 0.00 0.00 0.00 0.00 0.05 0.20 0.23 0.39 0.42 0.57 0.31 0.21 0.14 0.08 0.03 0.02 0.02 0.02 0.01 0.00 0.00 0.00 0.00 0.00
0.00 0.00 0.00 0.00 0.00 0.00 0.00 0.00 0.00 0.00 0.00 0.00 0.01 0.08 0.18 0.31 0.53 0.59 0.59 0.38 0.19 0.12 0.05 0.02 0.03 0.05 0.05 0.01 0.01 0.01 0.01 0.01
0.00 0.00 0.00 0.00 0.00 0.00 0.00 0.00 0.00 0.00 0.00 0.00 0.00 0.02 0.03 0.11 0.34 0.60 0.63 0.54 0.33 0.21 0.11 0.07 0.08 0.08 0.10 0.05 0.02 0.02 0.03 0.01
0.00 0.00 0.00 0.00 0.00 0.00 0.00 0.00 0.00 0.00 0.00 0.00 0.00 0.00 0.00 0.01 0.06 0.16 0.35 0.44 0.40 0.22 0.12 0.09 0.10 0.08 0.09 0.09 0.05 0.02 0.03 0.04
0.00 0.00 0.00 0.00 0.00 0.00 0.00 0.00 0.00 0.00 0.00 0.00 0.00 0.00 0.00 0.00 0.01 0.02 0.04 0.11 0.16 0.18 0.12 0.10 0.11 0.09 0.06 0.07 0.08 0.08 0.06 0.05
0.00 0.00 0.00 0.00 0.00 0.00 0.00 0.00 0.00 0.00 0.00 0.00 0.00 0.00 0.00 0.00 0.00 0.00 0.00 0.01 0.03 0.05 0.06 0.05 0.04 0.04 0.02 0.01 0.01 0.04 0.03 0.02
0.00 0.00 0.00 0.00 0.00 0.00 0.00 0.00 0.00 0.00 0.00 0.00 0.00 0.00 0.00 0.00 0.00 0.00 0.00 0.00 0.00 0.01 0.01 0.00 0.00 0.00 0.00 0.00 0.00 0.01 0.02 0.01
0.00 0.00 0.00 0.00 0.00 0.00 0.00 0.00 0.00 0.00 0.00 0.00 0.00 0.00 0.00 0.00 0.00 0.00 0.00 0.00 0.00 0.00 0.00 0.00 0.00 0.00 0.00 0.00 0.00 0.00 0.00 0.00
0.00 0.00 0.00 0.00 0.00 0.00 0.00 0.00 0.00 0.00 0.00 0.00 0.00 0.00 0.00 0.00 0.00 0.00 0.00 0.00 0.00 0.00 0.00 0.00 0.00 0.00 0.00 0.00 0.00 0.00 0.00 0.00
0.00 0.00 0.00 0.00 0.00 0.00 0.00 0.00 0.00 0.00 0.00 0.00 0.00 0.00 0.00 0.00 0.00 0.00 0.00 0.00 0.00 0.00 0.00 0.00 0.00 0.00 0.00 0.00 0.00 0.00 0.00 0.00
0.03 0.02 0.00 0.00 0.00 0.00 0.00 0.00 0.00 0.00 0.00 0.00 0.00 0.00 0.00 0.00 0.00 0.00 0.00 0.00 0.00 0.00 0.00 0.00 0.00 0.00 0.00 0.00 0.00 0.01 0.03 0.06
0.01 0.05 0.03 0.00 0.00 0.00 0.00 0.00 0.00 0.00 0.00 0.00 0.00 0.00 0.00 0.00 0.00 0.00 0.00 0.00 0.00 0.00 0.00 0.00 0.01 0.01 0.00 0.00 0.01 0.02 0.03 0.03
0.00 0.01 0.03 0.02 0.00 0.00 0.00 0.00 0.00 0.00 0.00 0.00 0.00 0.00 0.00 0.00 0.00 0.00 0.00 0.00 0.00 0.00 0.00 0.00 0.00 0.00 0.00 0.01 0.01 0.01 0.01 0.04
0.00 0.00 0.01 0.09 0.04 0.00 0.00 0.00 0.00 0.00 0.00 0.00 0.00 0.00 0.00 0.00 0.00 0.00 0.00 0.00 0.00 0.00 0.01 0.01 0.01 0.01 0.03 0.02 0.03 0.02 0.06 0.10
0.00 0.00 0.00 0.00 0.02 0.02 0.00 0.00 0.00 0.01 0.00 0.00 0.00 0.00 0.00 0.00 0.00 0.00 0.00 0.00 0.01 0.01 0.01 0.02 0.01 0.04 0.06 0.04 0.06 0.03 0.06 0.09

GFSFLT1_prec_precacc6_108.txt.gz
Total_Precipitation_Accumulation
0.00 0.00 0.00 0.00 0.00 0.00 0.00 0.00 0.00 0.00 0.00 0.00 0.02 0.05 0.04 0.03 0.09 0.18 0.22 0.14 0.10 0.05 0.03 0.00 0.05 0.01 0.02 0.01 0.00 0.00 0.00 0.00
0.00 0.00 0.00 0.00 0.00 0.00 0.00 0.00 0.00 0.00 0.00 0.00 0.01 0.01 0.02 0.04 0.01 0.02 0.07 0.07 0.06 0.03 0.02 0.00 0.03 0.02 0.02 0.01 0.00 0.00 0.00 0.00
0.00 0.00 0.00 0.00 0.00 0.00 0.00 0.00 0.00 0.00 0.00 0.00 0.00 0.02 0.01 0.05 0.09 0.03 0.02 0.03 0.03 0.02 0.01 0.00 0.01 0.03 0.02 0.02 0.00 0.00 0.00 0.00
0.00 0.00 0.00 0.00 0.00 0.00 0.00 0.00 0.00 0.00 0.00 0.00 0.00 0.00 0.04 0.08 0.27 0.26 0.04 0.03 0.01 0.01 0.00 0.00 0.00 0.02 0.01 0.01 0.00 0.00 0.00 0.00
0.00 0.00 0.00 0.00 0.00 0.00 0.00 0.00 0.00 0.00 0.00 0.00 0.00 0.00 0.01 0.04 0.12 0.54 0.20 0.09 0.05 0.03 0.01 0.01 0.00 0.02 0.02 0.01 0.00 0.00 0.00 0.00
0.00 0.00 0.00 0.00 0.00 0.00 0.00 0.00 0.00 0.00 0.00 0.00 0.00 0.00 0.01 0.03 0.15 0.50 0.70 0.39 0.21 0.08 0.03 0.02 0.02 0.02 0.05 0.03 0.02 0.03 0.02 0.01
0.00 0.00 0.00 0.00 0.00 0.00 0.00 0.00 0.00 0.00 0.00 0.00 0.00 0.01 0.01 0.02 0.12 0.34 0.90 0.82 0.50 0.27 0.09 0.04 0.04 0.06 0.09 0.09 0.07 0.04 0.07 0.04
0.00 0.00 0.00 0.00 0.00 0.00 0.00 0.00 0.00 0.00 0.00 0.00 0.00 0.00 0.00 0.00 0.03 0.12 0.35 0.79 0.71 0.47 0.21 0.10 0.10 0.11 0.13 0.13 0.15 0.10 0.06 0.07
0.00 0.00 0.00 0.00 0.00 0.00 0.00 0.00 0.00 0.00 0.00 0.01 0.00 0.00 0.00 0.00 0.01 0.04 0.09 0.20 0.44 0.48 0.39 0.19 0.16 0.15 0.15 0.13 0.14 0.13 0.08 0.05
0.00 0.00 0.00 0.00 0.00 0.00 0.00 0.00 0.00 0.00 0.00 0.00 0.00 0.00 0.00 0.00 0.00 0.02 0.11 0.08 0.20 0.33 0.40 0.35 0.24 0.18 0.13 0.10 0.08 0.06 0.06 0.03
0.00 0.00 0.00 0.00 0.00 0.00 0.00 0.00 0.00 0.00 0.00 0.00 0.00 0.00 0.00 0.00 0.00 0.00 0.03 0.04 0.09 0.11 0.27 0.30 0.26 0.18 0.10 0.07 0.04 0.03 0.03 0.01
0.00 0.00 0.00 0.00 0.00 0.00 0.00 0.00 0.00 0.00 0.00 0.00 0.00 0.00 0.00 0.00 0.00 0.00 0.00 0.00 0.02 0.04 0.07 0.23 0.22 0.13 0.06 0.03 0.02 0.01 0.00 0.00
0.04 0.02 0.00 0.00 0.00 0.00 0.00 0.00 0.00 0.00 0.00 0.00 0.00 0.00 0.00 0.00 0.00 0.00 0.00 0.00 0.00 0.00 0.00 0.04 0.05 0.01 0.00 0.00 0.00 0.00 0.00 0.00
0.02 0.04 0.01 0.00 0.00 0.00 0.00 0.00 0.00 0.00 0.00 0.00 0.00 0.00 0.00 0.00 0.00 0.00 0.00 0.00 0.00 0.00 0.00 0.00 0.00 0.00 0.00 0.00 0.00 0.00 0.00 0.00
0.05 0.08 0.08 0.04 0.02 0.00 0.00 0.00 0.00 0.00 0.00 0.00 0.00 0.00 0.00 0.00 0.00 0.00 0.00 0.00 0.00 0.00 0.00 0.00 0.00 0.00 0.00 0.00 0.00 0.00 0.02 0.03
0.01 0.08 0.13 0.09 0.05 0.04 0.01 0.00 0.00 0.00 0.00 0.00 0.00 0.00 0.00 0.00 0.00 0.00 0.00 0.00 0.00 0.00 0.00 0.00 0.00 0.00 0.00 0.00 0.00 0.01 0.02 0.00
0.00 0.01 0.07 0.08 0.07 0.07 0.05 0.03 0.00 0.00 0.00 0.00 0.00 0.00 0.00 0.00 0.00 0.00 0.00 0.00 0.00 0.00 0.00 0.00 0.00 0.00 0.01 0.01 0.01 0.01 0.01 0.01
0.00 0.00 0.01 0.12 0.09 0.05 0.07 0.08 0.06 0.01 0.00 0.00 0.00 0.00 0.00 0.00 0.00 0.00 0.00 0.00 0.00 0.00 0.01 0.01 0.01 0.01 0.03 0.02 0.02 0.01 0.03 0.04
0.00 0.00 0.00 0.01 0.04 0.08 0.12 0.16 0.17 0.09 0.02 0.00 0.00 0.00 0.00 0.00 0.00 0.00 0.00 0.00 0.01 0.01 0.02 0.02 0.01 0.03 0.06 0.04 0.05 0.02 0.06 0.09

GFSFLT1_prec_precacc6_111.txt.gz
Total_Precipitation_Accumulation
0.00 0.00 0.00 0.00 0.00 0.00 0.00 0.00 0.00 0.00 0.00 0.00 0.02 0.02 0.01 0.03 0.45 0.36 0.28 0.21 0.10 0.04 0.01 0.01 0.00 0.00 0.00 0.00 0.00 0.00 0.00 0.00
0.00 0.00 0.00 0.00 0.00 0.00 0.00 0.00 0.00 0.00 0.00 0.00 0.01 0.01 0.00 0.01 0.18 0.23 0.17 0.15 0.07 0.03 0.01 0.00 0.00 0.00 0.00 0.00 0.00 0.00 0.00 0.00
0.00 0.00 0.00 0.00 0.00 0.00 0.00 0.00 0.00 0.00 0.00 0.00 0.00 0.02 0.01 0.01 0.01 0.07 0.13 0.13 0.07 0.02 0.01 0.00 0.00 0.00 0.00 0.00 0.00 0.00 0.00 0.00
0.00 0.00 0.00 0.00 0.00 0.00 0.00 0.00 0.00 0.00 0.00 0.00 0.00 0.02 0.05 0.07 0.06 0.04 0.06 0.09 0.10 0.03 0.01 0.00 0.00 0.00 0.00 0.00 0.00 0.00 0.00 0.00
0.00 0.00 0.00 0.00 0.00 0.00 0.00 0.00 0.00 0.00 0.00 0.00 0.00 0.00 0.02 0.03 0.05 0.14 0.07 0.05 0.06 0.05 0.03 0.01 0.00 0.01 0.01 0.00 0.00 0.00 0.00 0.00
0.00 0.00 0.00 0.00 0.00 0.00 0.00 0.00 0.00 0.00 0.00 0.00 0.00 0.00 0.00 0.01 0.05 0.29 0.38 0.24 0.15 0.04 0.04 0.03 0.03 0.02 0.05 0.02 0.01 0.02 0.02 0.00
0.00 0.00 0.00 0.00 0.00 0.00 0.00 0.00 0.00 0.00 0.00 0.00 0.00 0.00 0.00 0.00 0.02 0.07 0.61 0.72 0.43 0.19 0.08 0.05 0.07 0.07 0.07 0.08 0.05 0.03 0.05 0.04
0.00 0.00 0.00 0.00 0.00 0.00 0.00 0.00 0.00 0.00 0.01 0.00 0.00 0.00 0.00 0.00 0.01 0.05 0.17 0.86 0.89 0.52 0.20 0.10 0.09 0.13 0.12 0.14 0.14 0.12 0.09 0.11
0.00 0.00 0.00 0.00 0.00 0.00 0.00 0.00 0.00 0.00 0.00 0.00 0.00 0.00 0.00 0.00 0.00 0.04 0.13 0.25 0.69 0.64 0.48 0.22 0.16 0.19 0.22 0.22 0.26 0.24 0.19 0.17
0.00 0.00 0.00 0.00 0.00 0.00 0.00 0.00 0.00 0.00 0.00 0.00 0.00 0.00 0.00 0.00 0.00 0.02 0.17 0.25 0.41 0.53 0.60 0.50 0.35 0.30 0.32 0.34 0.34 0.38 0.32 0.26
0.00 0.00 0.00 0.00 0.00 0.00 0.00 0.00 0.00 0.00 0.00 0.00 0.00 0.00 0.00 0.00 0.00 0.00 0.05 0.12 0.26 0.36 0.52 0.54 0.49 0.42 0.37 0.34 0.30 0.30 0.32 0.25
0.01 0.00 0.00 0.00 0.01 0.01 0.00 0.00 0.00 0.00 0.00 0.00 0.00 0.00 0.00 0.00 0.00 0.00 0.00 0.02 0.13 0.28 0.38 0.53 0.49 0.35 0.31 0.32 0.26 0.17 0.14 0.16
0.05 0.04 0.02 0.03 0.03 0.03 0.00 0.00 0.00 0.00 0.00 0.00 0.00 0.00 0.00 0.00 0.00 0.00 0.00 0.00 0.02 0.10 0.19 0.36 0.47 0.38 0.23 0.15 0.14 0.11 0.08 0.06
0.02 0.04 0.05 0.10 0.08 0.06 0.00 0.00 0.00 0.00 0.00 0.00 0.00 0.00 0.00 0.00 0.00 0.00 0.00 0.00 0.00 0.00 0.01 0.06 0.15 0.20 0.22 0.09 0.04 0.01 0.00 0.00
0.02 0.07 0.10 0.09 0.10 0.12 0.04 0.00 0.00 0.00 0.00 0.00 0.00 0.00 0.00 0.00 0.00 0.00 0.00 0.00 0.00 0.00 0.00 0.01 0.01 0.01 0.04 0.02 0.00 0.00 0.00 0.01
0.01 0.05 0.12 0.11 0.11 0.13 0.09 0.01 0.00 0.00 0.00 0.00 0.00 0.00 0.00 0.00 0.00 0.00 0.00 0.00 0.00 0.00 0.00 0.00 0.00 0.00 0.00 0.00 0.00 0.00 0.00 0.00
0.01 0.00 0.07 0.08 0.12 0.15 0.16 0.11 0.02 0.00 0.00 0.00 0.00 0.00 0.00 0.00 0.00 0.00 0.00 0.00 0.00 0.00 0.00 0.00 0.00 0.00 0.00 0.00 0.00 0.00 0.00 0.00
0.01 0.00 0.01 0.05 0.07 0.07 0.10 0.17 0.16 0.04 0.00 0.00 0.00 0.00 0.00 0.00 0.00 0.00 0.00 0.00 0.00 0.00 0.00 0.00 0.00 0.00 0.02 0.01 0.01 0.01 0.03 0.04
0.01 0.01 0.00 0.01 0.02 0.07 0.12 0.20 0.26 0.23 0.09 0.00 0.00 0.00 0.00 0.00 0.00 0.00 0.00 0.00 0.00 0.01 0.01 0.01 0.01 0.02 0.05 0.03 0.03 0.02 0.04 0.05

GFSFLT1_prec_precacc6_114.txt.gz
Total_Precipitation_Accumulation
0.00 0.00 0.00 0.00 0.00 0.00 0.00 0.00 0.00 0.00 0.00 0.00 0.00 0.00 0.00 0.02 0.38 0.24 0.16 0.56 0.64 0.17 0.05 0.03 0.01 0.01 0.00 0.00 0.00 0.00 0.00 0.00
0.00 0.00 0.00 0.00 0.00 0.00 0.00 0.00 0.00 0.00 0.00 0.01 0.01 0.00 0.00 0.01 0.21 0.27 0.17 0.40 0.40 0.23 0.04 0.03 0.01 0.01 0.00 0.00 0.00 0.00 0.00 0.00
0.00 0.00 0.00 0.00 0.00 0.00 0.00 0.00 0.00 0.00 0.00 0.00 0.01 0.00 0.00 0.00 0.02 0.10 0.18 0.35 0.26 0.10 0.03 0.02 0.01 0.00 0.00 0.00 0.00 0.00 0.00 0.00
0.00 0.00 0.00 0.00 0.00 0.00 0.00 0.00 0.00 0.00 0.00 0.00 0.00 0.01 0.01 0.02 0.02 0.05 0.12 0.22 0.21 0.10 0.02 0.00 0.01 0.00 0.00 0.00 0.00 0.00 0.00 0.00
0.00 0.00 0.00 0.00 0.00 0.00 0.00 0.00 0.00 0.00 0.00 0.00 0.00 0.00 0.02 0.02 0.01 0.02 0.04 0.09 0.16 0.13 0.06 0.01 0.00 0.00 0.00 0.00 0.00 0.00 0.00 0.00
0.00 0.00 0.00 0.00 0.00 0.00 0.00 0.00 0.00 0.00 0.00 0.00 0.00 0.00 0.00 0.01 0.04 0.03 0.06 0.06 0.06 0.09 0.08 0.03 0.02 0.01 0.00 0.00 0.00 0.00 0.00 0.00
0.00 0.00 0.00 0.00 0.00 0.00 0.00 0.00 0.00 0.01 0.00 0.00 0.00 0.00 0.00 0.00 0.01 0.03 0.10 0.30 0.16 0.06 0.07 0.06 0.04 0.03 0.00 0.00 0.00 0.00 0.01 0.01
0.00 0.00 0.00 0.00 0.00 0.00 0.00 0.00 0.00 0.00 0.00 0.00 0.00 0.00 0.00 0.00 0.00 0.01 0.05 0.41 0.55 0.23 0.09 0.07 0.06 0.07 0.05 0.03 0.03 0.04 0.05 0.07
0.00 0.00 0.00 0.00 0.00 0.00 0.00 0.00 0.00 0.00 0.00 0.00 0.00 0.00 0.00 0.00 0.00 0.01 0.07 0.13 0.44 0.45 0.26 0.14 0.10 0.11 0.12 0.13 0.15 0.16 0.15 0.16
0.00 0.00 0.00 0.00 0.00 0.00 0.00 0.00 0.00 0.01 0.00 0.00 0.00 0.00 0.00 0.00 0.00 0.00 0.07 0.19 0.31 0.43 0.49 0.40 0.28 0.21 0.26 0.31 0.34 0.38 0.35 0.34
0.00 0.00 0.00 0.00 0.00 0.00 0.00 0.01 0.04 0.02 0.00 0.00 0.00 0.00 0.00 0.00 0.00 0.00 0.02 0.09 0.24 0.40 0.47 0.60 0.54 0.40 0.43 0.50 0.52 0.47 0.51 0.52
0.00 0.00 0.00 0.00 0.01 0.03 0.04 0.06 0.04 0.02 0.00 0.00 0.00 0.00 0.00 0.00 0.00 0.00 0.01 0.02 0.12 0.31 0.52 0.58 0.64 0.49 0.49 0.63 0.59 0.47 0.40 0.45
0.00 0.02 0.02 0.03 0.04 0.05 0.06 0.05 0.03 0.00 0.00 0.00 0.00 0.00 0.01 0.00 0.00 0.00 0.00 0.00 0.03 0.14 0.38 0.64 0.68 0.68 0.51 0.48 0.50 0.46 0.39 0.28
0.00 0.01 0.04 0.11 0.11 0.09 0.05 0.02 0.01 0.00 0.00 0.00 0.01 0.00 0.01 0.01 0.00 0.00 0.00 0.00 0.00 0.03 0.06 0.22 0.45 0.45 0.57 0.46 0.37 0.30 0.27 0.21
0.04 0.02 0.03 0.07 0.12 0.16 0.12 0.04 0.01 0.00 0.00 0.00 0.00 0.01 0.01 0.01 0.00 0.00 0.00 0.00 0.00 0.01 0.01 0.02 0.11 0.19 0.29 0.43 0.29 0.23 0.16 0.06
0.15 0.04 0.05 0.04 0.10 0.15 0.17 0.06 0.02 0.00 0.00 0.00 0.00 0.01 0.01 0.01 0.00 0.00 0.00 0.00 0.00 0.00 0.00 0.01 0.03 0.05 0.16 0.18 0.14 0.05 0.05 0.02
0.21 0.11 0.05 0.03 0.07 0.12 0.16 0.12 0.05 0.00 0.00 0.00 0.00 0.01 0.01 0.01 0.01 0.00 0.00 0.00 0.00 0.00 0.00 0.00 0.01 0.02 0.07 0.08 0.06 0.01 0.02 0.00
0.12 0.12 0.06 0.06 0.03 0.06 0.05 0.11 0.14 0.05 0.00 0.00 0.00 0.00 0.00 0.00 0.01 0.01 0.00 0.01 0.01 0.01 0.00 0.00 0.00 0.01 0.03 0.02 0.02 0.01 0.01 0.02
0.04 0.07 0.04 0.09 0.08 0.10 0.05 0.06 0.12 0.21 0.10 0.00 0.00 0.00 0.00 0.00 0.00 0.00 0.00 0.01 0.01 0.01 0.01 0.02 0.01 0.01 0.03 0.01 0.02 0.01 0.02 0.02

GFSFLT1_prec_precacc6_117.txt.gz
Total_Precipitation_Accumulation
0.00 0.00 0.00 0.00 0.00 0.00 0.00 0.00 0.00 0.00 0.00 0.00 0.00 0.00 0.00 0.00 0.02 0.05 0.09 0.51 0.75 0.40 0.30 0.21 0.10 0.06 0.00 0.00 0.00 0.00 0.00 0.00
0.00 0.00 0.00 0.00 0.00 0.00 0.00 0.00 0.00 0.00 0.00 0.01 0.01 0.00 0.00 0.00 0.03 0.06 0.06 0.33 0.51 0.75 0.35 0.14 0.09 0.07 0.00 0.00 0.00 0.00 0.00 0.00
0.00 0.00 0.00 0.00 0.00 0.00 0.00 0.00 0.00 0.00 0.00 0.00 0.00 0.00 0.00 0.00 0.01 0.03 0.06 0.27 0.25 0.55 0.42 0.16 0.06 0.04 0.01 0.00 0.00 0.00 0.00 0.00
0.00 0.00 0.00 0.00 0.00 0.00 0.00 0.00 0.00 0.00 0.00 0.00 0.00 0.00 0.00 0.01 0.01 0.03 0.08 0.23 0.23 0.28 0.34 0.20 0.06 0.01 0.00 0.00 0.00 0.00 0.00 0.00
0.00 0.00 0.00 0.00 0.00 0.00 0.00 0.00 0.00 0.00 0.00 0.00 0.00 0.00 0.01 0.00 0.00 0.02 0.03 0.11 0.24 0.22 0.25 0.28 0.09 0.01 0.00 0.00 0.00 0.00 0.00 0.00
0.00 0.00 0.00 0.00 0.00 0.00 0.00 0.00 0.00 0.00 0.00 0.00 0.00 0.00 0.00 0.00 0.00 0.01 0.03 0.03 0.10 0.24 0.22 0.23 0.11 0.02 0.01 0.00 0.00 0.00 0.00 0.00
0.00 0.00 0.00 0.00 0.00 0.00 0.00 0.00 0.00 0.01 0.00 0.00 0.00 0.00 0.00 0.00 0.00 0.01 0.03 0.05 0.02 0.09 0.24 0.18 0.10 0.04 0.01 0.00 0.00 0.00 0.00 0.00
0.00 0.00 0.00 0.00 0.00 0.00 0.00 0.00 0.01 0.00 0.00 0.00 0.00 0.00 0.00 0.00 0.00 0.00 0.03 0.08 0.07 0.02 0.06 0.13 0.09 0.04 0.02 0.01 0.00 0.00 0.00 0.01
0.00 0.00 0.00 0.00 0.00 0.00 0.00 0.00 0.01 0.01 0.01 0.03 0.01 0.00 0.00 0.00 0.00 0.00 0.00 0.05 0.11 0.14 0.06 0.04 0.06 0.06 0.02 0.02 0.01 0.00 0.01 0.02
0.00 0.00 0.00 0.00 0.00 0.00 0.00 0.01 0.01 0.03 0.06 0.04 0.00 0.00 0.00 0.00 0.00 0.00 0.00 0.02 0.10 0.23 0.27 0.22 0.14 0.08 0.07 0.07 0.08 0.05 0.06 0.10
0.00 0.00 0.00 0.00 0.00 0.00 0.00 0.01 0.05 0.06 0.03 0.01 0.00 0.00 0.00 0.00 0.00 0.00 0.00 0.01 0.08 0.17 0.29 0.59 0.60 0.26 0.18 0.24 0.29 0.20 0.21 0.29
0.00 0.00 0.00 0.00 0.00 0.02 0.05 0.06 0.05 0.04 0.03 0.01 0.00 0.00 0.00 0.00 0.00 0.00 0.00 0.00 0.01 0.08 0.26 0.52 0.85 0.62 0.46 0.45 0.43 0.37 0.29 0.32
0.00 0.00 0.00 0.00 0.01 0.04 0.06 0.06 0.04 0.03 0.00 0.00 0.00 0.01 0.01 0.00 0.00 0.00 0.00 0.00 0.01 0.04 0.20 0.49 0.62 0.66 0.52 0.62 0.62 0.54 0.52 0.37
0.00 0.00 0.00 0.01 0.06 0.07 0.06 0.03 0.02 0.03 0.01 0.00 0.01 0.01 0.01 0.01 0.00 0.00 0.00 0.00 0.01 0.03 0.06 0.28 0.53 0.49 0.60 0.69 0.66 0.64 0.69 0.58
0.04 0.04 0.03 0.02 0.05 0.12 0.19 0.19 0.14 0.09 0.04 0.00 0.00 0.01 0.01 0.01 0.00 0.00 0.00 0.00 0.01 0.01 0.02 0.04 0.25 0.46 0.54 0.73 0.73 0.79 0.73 0.52
0.16 0.08 0.06 0.03 0.04 0.09 0.23 0.19 0.15 0.07 0.02 0.00 0.01 0.01 0.01 0.02 0.01 0.00 0.00 0.00 0.00 0.01 0.01 0.01 0.04 0.18 0.48 0.48 0.57 0.41 0.39 0.30
0.20 0.15 0.08 0.05 0.02 0.06 0.14 0.17 0.14 0.05 0.01 0.00 0.00 0.01 0.01 0.02 0.02 0.01 0.01 0.01 0.01 0.00 0.00 0.01 0.03 0.06 0.22 0.31 0.41 0.27 0.17 0.19
0.12 0.18 0.11 0.08 0.08 0.05 0.08 0.09 0.10 0.04 0.00 0.00 0.00 0.00 0.01 0.01 0.02 0.02 0.02 0.03 0.03 0.02 0.02 0.01 0.01 0.05 0.12 0.16 0.27 0.17 0.07 0.14
0.03 0.08 0.05 0.09 0.16 0.27 0.20 0.10 0.06 0.09 0.03 0.00 0.00 0.00 0.00 0.00 0.02 0.02 0.02 0.03 0.03 0.03 0.03 0.04 0.01 0.03 0.05 0.06 0.07 0.05 0.04 0.02

GFSFLT1_prec_precacc6_123.txt.gz
Total_Precipitation_Accumulation
0.00 0.00 0.00 0.00 0.00 0.00 0.00 0.00 0.00 0.00 0.00 0.00 0.01 0.01 0.02 0.01 0.03 0.00 0.01 0.02 0.02 0.04 0.05 0.11 0.13 0.23 0.20 0.19 0.13 0.03 0.00 0.00
0.00 0.00 0.00 0.00 0.00 0.00 0.00 0.00 0.00 0.00 0.00 0.00 0.00 0.00 0.00 0.00 0.01 0.00 0.00 0.01 0.02 0.04 0.20 0.17 0.14 0.26 0.30 0.26 0.12 0.03 0.02 0.02
0.00 0.00 0.00 0.00 0.00 0.00 0.00 0.00 0.00 0.00 0.00 0.00 0.00 0.00 0.00 0.00 0.00 0.00 0.00 0.01 0.02 0.04 0.27 0.36 0.17 0.19 0.30 0.34 0.30 0.06 0.02 0.04
0.00 0.00 0.00 0.00 0.00 0.00 0.00 0.00 0.00 0.00 0.00 0.00 0.00 0.00 0.01 0.01 0.01 0.01 0.01 0.01 0.01 0.06 0.22 0.45 0.32 0.25 0.33 0.26 0.28 0.11 0.02 0.03
0.00 0.00 0.00 0.00 0.00 0.00 0.00 0.00 0.00 0.00 0.00 0.00 0.00 0.00 0.00 0.00 0.00 0.01 0.01 0.01 0.01 0.03 0.08 0.32 0.47 0.31 0.26 0.24 0.21 0.09 0.02 0.01
0.00 0.00 0.00 0.00 0.00 0.00 0.00 0.00 0.00 0.00 0.00 0.00 0.00 0.01 0.00 0.00 0.01 0.00 0.02 0.01 0.01 0.02 0.08 0.23 0.42 0.37 0.29 0.23 0.22 0.14 0.04 0.02
0.00 0.00 0.00 0.00 0.00 0.00 0.00 0.00 0.00 0.00 0.01 0.00 0.01 0.00 0.01 0.01 0.01 0.01 0.02 0.01 0.01 0.01 0.04 0.22 0.37 0.42 0.28 0.23 0.20 0.11 0.03 0.02
0.00 0.00 0.00 0.00 0.00 0.00 0.00 0.00 0.00 0.01 0.01 0.00 0.02 0.04 0.02 0.00 0.01 0.01 0.01 0.01 0.01 0.01 0.00 0.10 0.34 0.44 0.36 0.23 0.24 0.18 0.05 0.02
0.00 0.00 0.00 0.00 0.00 0.00 0.00 0.00 0.00 0.01 0.01 0.03 0.03 0.02 0.02 0.00 0.00 0.01 0.01 0.01 0.02 0.01 0.00 0.01 0.16 0.40 0.44 0.36 0.24 0.22 0.09 0.05
0.00 0.00 0.00 0.00 0.00 0.00 0.00 0.00 0.00 0.01 0.01 0.00 0.03 0.07 0.02 0.00 0.01 0.01 0.02 0.01 0.07 0.06 0.01 0.00 0.01 0.15 0.43 0.39 0.26 0.21 0.13 0.07
0.00 0.00 0.00 0.00 0.00 0.00 0.00 0.00 0.00 0.01 0.01 0.02 0.04 0.06 0.03 0.00 0.01 0.01 0.02 0.02 0.04 0.07 0.12 0.09 0.01 0.01 0.09 0.34 0.28 0.16 0.10 0.05
0.00 0.00 0.00 0.00 0.00 0.00 0.00 0.00 0.00 0.01 0.01 0.03 0.06 0.15 0.12 0.04 0.01 0.01 0.01 0.02 0.02 0.04 0.10 0.21 0.32 0.22 0.08 0.04 0.17 0.17 0.08 0.02
0.00 0.00 0.00 0.00 0.00 0.00 0.00 0.00 0.01 0.01 0.01 0.05 0.10 0.12 0.05 0.01 0.01 0.01 0.01 0.01 0.02 0.01 0.02 0.11 0.31 0.65 0.64 0.25 0.09 0.12 0.09 0.03
0.00 0.00 0.00 0.00 0.00 0.00 0.01 0.01 0.01 0.01 0.03 0.08 0.08 0.06 0.01 0.01 0.01 0.01 0.01 0.01 0.01 0.01 0.02 0.03 0.07 0.31 0.64 0.56 0.32 0.16 0.12 0.12
0.00 0.00 0.00 0.00 0.00 0.00 0.01 0.03 0.03 0.04 0.07 0.11 0.08 0.06 0.02 0.03 0.01 0.01 0.01 0.00 0.00 0.00 0.00 0.01 0.03 0.12 0.33 0.39 0.46 0.43 0.29 0.35
0.00 0.00 0.00 0.00 0.00 0.00 0.01 0.03 0.06 0.09 0.14 0.11 0.07 0.05 0.03 0.02 0.02 0.01 0.01 0.01 0.01 0.00 0.00 0.00 0.02 0.08 0.22 0.32 0.39 0.54 0.72 0.70
0.00 0.00 0.00 0.01 0.00 0.00 0.02 0.04 0.08 0.12 0.15 0.11 0.08 0.07 0.05 0.02 0.02 0.01 0.01 0.01 0.01 0.00 0.00 0.00 0.00 0.01 0.16 0.30 0.40 0.53 0.69 0.73
0.00 0.00 0.00 0.00 0.00 0.00 0.06 0.10 0.08 0.12 0.15 0.13 0.09 0.07 0.04 0.03 0.02 0.01 0.01 0.01 0.00 0.00 0.00 0.00 0.00 0.01 0.03 0.12 0.32 0.38 0.44 0.52
0.00 0.00 0.00 0.00 0.00 0.01 0.07 0.14 0.14 0.10 0.12 0.13 0.09 0.06 0.04 0.03 0.02 0.01 0.00 0.00 0.00 0.00 0.00 0.00 0.00 0.02 0.03 0.04 0.12 0.33 0.25 0.32

GFSFLT1_prec_precacc6_126.txt.gz
Total_Precipitation_Accumulation
0.00 0.00 0.00 0.00 0.00 0.00 0.00 0.00 0.00 0.00 0.00 0.00 0.01 0.01 0.00 0.00 0.00 0.01 0.01 0.02 0.02 0.03 0.02 0.01 0.04 0.06 0.14 0.21 0.30 0.25 0.28 0.18
0.00 0.00 0.00 0.00 0.00 0.00 0.00 0.00 0.00 0.00 0.00 0.00 0.00 0.01 0.00 0.00 0.00 0.01 0.01 0.01 0.02 0.02 0.01 0.03 0.01 0.04 0.16 0.28 0.23 0.14 0.14 0.12
0.00 0.00 0.00 0.00 0.00 0.00 0.00 0.00 0.00 0.00 0.00 0.00 0.00 0.00 0.01 0.00 0.00 0.00 0.01 0.01 0.01 0.02 0.02 0.02 0.02 0.05 0.09 0.32 0.40 0.21 0.09 0.17
0.00 0.00 0.00 0.00 0.00 0.00 0.00 0.00 0.00 0.00 0.00 0.00 0.00 0.00 0.01 0.01 0.01 0.00 0.00 0.01 0.02 0.02 0.02 0.03 0.07 0.10 0.17 0.19 0.31 0.21 0.10 0.10
0.00 0.00 0.00 0.00 0.00 0.00 0.00 0.00 0.00 0.00 0.00 0.00 0.00 0.00 0.00 0.00 0.00 0.00 0.00 0.00 0.01 0.02 0.02 0.02 0.13 0.20 0.19 0.19 0.24 0.17 0.08 0.07
0.00 0.00 0.00 0.00 0.00 0.00 0.00 0.00 0.00 0.00 0.00 0.00 0.00 0.01 0.00 0.00 0.00 0.01 0.01 0.01 0.01 0.01 0.02 0.02 0.10 0.18 0.24 0.19 0.25 0.29 0.14 0.05
0.00 0.00 0.00 0.00 0.00 0.00 0.00 0.00 0.00 0.00 0.00 0.00 0.01 0.01 0.01 0.01 0.01 0.01 0.01 0.01 0.01 0.01 0.02 0.02 0.07 0.16 0.20 0.24 0.29 0.24 0.19 0.11
0.00 0.00 0.00 0.00 0.00 0.00 0.00 0.00 0.00 0.00 0.00 0.01 0.02 0.02 0.02 0.03 0.02 0.01 0.01 0.01 0.00 0.00 0.01 0.01 0.06 0.13 0.23 0.22 0.37 0.42 0.20 0.13
0.00 0.00 0.00 0.00 0.00 0.00 0.00 0.00 0.00 0.00 0.00 0.01 0.01 0.02 0.02 0.02 0.03 0.01 0.01 0.01 0.00 0.00 0.00 0.00 0.02 0.11 0.26 0.32 0.31 0.41 0.28 0.16
0.00 0.00 0.00 0.00 0.00 0.00 0.00 0.00 0.00 0.00 0.00 0.00 0.02 0.05 0.03 0.02 0.01 0.01 0.01 0.01 0.01 0.00 0.00 0.00 0.00 0.05 0.25 0.36 0.35 0.40 0.35 0.26
0.00 0.00 0.00 0.00 0.00 0.00 0.00 0.00 0.00 0.00 0.00 0.00 0.02 0.05 0.04 0.02 0.02 0.02 0.02 0.02 0.01 0.01 0.03 0.01 0.00 0.01 0.05 0.29 0.39 0.44 0.37 0.28
0.00 0.00 0.00 0.00 0.00 0.00 0.00 0.00 0.00 0.00 0.00 0.01 0.03 0.09 0.10 0.04 0.03 0.02 0.02 0.02 0.02 0.01 0.02 0.05 0.08 0.05 0.01 0.04 0.20 0.37 0.36 0.26
0.00 0.00 0.00 0.00 0.00 0.00 0.00 0.00 0.00 0.00 0.00 0.01 0.03 0.07 0.05 0.03 0.02 0.03 0.03 0.02 0.02 0.02 0.01 0.05 0.08 0.12 0.23 0.13 0.06 0.17 0.26 0.22
0.00 0.00 0.00 0.00 0.00 0.00 0.00 0.00 0.00 0.00 0.00 0.01 0.02 0.03 0.02 0.04 0.03 0.03 0.02 0.02 0.02 0.03 0.02 0.03 0.04 0.08 0.16 0.24 0.18 0.09 0.12 0.18
0.00 0.00 0.00 0.00 0.00 0.00 0.00 0.00 0.00 0.00 0.01 0.02 0.03 0.05 0.04 0.05 0.04 0.02 0.02 0.02 0.01 0.02 0.02 0.02 0.02 0.01 0.07 0.17 0.25 0.24 0.11 0.11
0.00 0.00 0.00 0.00 0.00 0.00 0.00 0.00 0.00 0.00 0.02 0.03 0.05 0.05 0.05 0.07 0.05 0.03 0.03 0.03 0.01 0.01 0.01 0.01 0.01 0.02 0.04 0.06 0.11 0.22 0.29 0.28
0.00 0.00 0.00 0.00 0.00 0.00 0.00 0.00 0.00 0.00 0.03 0.05 0.07 0.08 0.08 0.08 0.07 0.04 0.02 0.03 0.01 0.00 0.00 0.00 0.00 0.00 0.03 0.13 0.21 0.28 0.37 0.51
0.00 0.00 0.00 0.00 0.00 0.00 0.00 0.00 0.01 0.01 0.03 0.07 0.08 0.08 0.09 0.08 0.07 0.04 0.03 0.02 0.01 0.00 0.00 0.00 0.00 0.00 0.02 0.06 0.17 0.21 0.38 0.55
0.00 0.00 0.00 0.00 0.00 0.00 0.00 0.00 0.02 0.01 0.02 0.07 0.09 0.07 0.07 0.10 0.09 0.03 0.02 0.01 0.00 0.00 0.00 0.00 0.00 0.01 0.02 0.02 0.02 0.09 0.22 0.41

GFSFLT1_prec_precacc6_132.txt.gz
Total_Precipitation_Accumulation
0.00 0.00 0.00 0.00 0.00 0.00 0.00 0.01 0.03 0.07 0.08 0.05 0.03 0.02 0.01 0.00 0.00 0.00 0.01 0.02 0.03 0.03 0.02 0.01 0.00 0.06 0.09 0.05 0.01 0.03 0.07 0.14
0.00 0.00 0.00 0.00 0.00 0.00 0.00 0.00 0.00 0.06 0.05 0.05 0.03 0.02 0.02 0.01 0.01 0.00 0.01 0.04 0.13 0.16 0.15 0.09 0.03 0.06 0.11 0.07 0.01 0.02 0.01 0.13
0.00 0.00 0.00 0.00 0.00 0.00 0.00 0.00 0.00 0.00 0.00 0.01 0.02 0.00 0.00 0.00 0.00 0.00 0.01 0.04 0.09 0.12 0.12 0.13 0.07 0.05 0.03 0.04 0.01 0.02 0.01 0.03
0.00 0.00 0.00 0.00 0.00 0.00 0.00 0.00 0.00 0.00 0.00 0.00 0.00 0.00 0.00 0.00 0.00 0.00 0.00 0.03 0.05 0.09 0.13 0.11 0.05 0.03 0.03 0.04 0.02 0.02 0.02 0.02
0.00 0.00 0.00 0.00 0.00 0.00 0.00 0.00 0.00 0.00 0.00 0.00 0.00 0.00 0.00 0.00 0.00 0.00 0.03 0.05 0.08 0.09 0.11 0.12 0.11 0.08 0.07 0.06 0.02 0.01 0.02 0.02
0.00 0.00 0.00 0.00 0.00 0.00 0.00 0.00 0.00 0.00 0.00 0.00 0.00 0.00 0.00 0.00 0.00 0.01 0.02 0.02 0.04 0.06 0.07 0.12 0.11 0.10 0.07 0.06 0.04 0.02 0.02 0.02
0.00 0.00 0.00 0.00 0.00 0.00 0.00 0.00 0.00 0.00 0.00 0.00 0.00 0.00 0.00 0.00 0.00 0.02 0.04 0.02 0.02 0.03 0.05 0.08 0.10 0.09 0.08 0.06 0.03 0.02 0.03 0.05
0.00 0.00 0.00 0.00 0.00 0.00 0.00 0.00 0.00 0.00 0.00 0.00 0.00 0.00 0.01 0.03 0.04 0.03 0.03 0.03 0.02 0.02 0.04 0.04 0.08 0.10 0.07 0.06 0.03 0.03 0.08 0.11
0.00 0.00 0.00 0.00 0.00 0.00 0.00 0.00 0.00 0.00 0.00 0.00 0.00 0.00 0.02 0.03 0.05 0.04 0.02 0.01 0.00 0.01 0.02 0.03 0.04 0.12 0.08 0.05 0.03 0.03 0.13 0.18
0.01 0.00 0.00 0.00 0.00 0.00 0.00 0.00 0.00 0.00 0.00 0.00 0.00 0.00 0.01 0.02 0.04 0.06 0.05 0.03 0.02 0.02 0.01 0.02 0.02 0.08 0.04 0.04 0.02 0.02 0.10 0.21
0.01 0.00 0.00 0.00 0.00 0.00 0.00 0.00 0.00 0.00 0.00 0.00 0.00 0.00 0.00 0.01 0.03 0.05 0.06 0.04 0.03 0.04 0.02 0.01 0.04 0.06 0.05 0.03 0.02 0.02 0.08 0.16
0.02 0.00 0.00 0.00 0.00 0.00 0.00 0.00 0.00 0.00 0.00 0.00 0.00 0.00 0.00 0.01 0.04 0.06 0.08 0.08 0.09 0.08 0.04 0.01 0.02 0.04 0.04 0.02 0.01 0.01 0.06 0.13
0.05 0.02 0.00 0.00 0.00 0.00 0.00 0.00 0.00 0.00 0.00 0.00 0.00 0.00 0.01 0.01 0.02 0.06 0.07 0.09 0.10 0.13 0.10 0.02 0.01 0.01 0.00 0.01 0.01 0.01 0.02 0.07
0.02 0.02 0.01 0.00 0.00 0.00 0.00 0.00 0.00 0.00 0.00 0.00 0.00 0.00 0.01 0.01 0.01 0.04 0.08 0.13 0.16 0.13 0.11 0.05 0.01 0.01 0.00 0.00 0.00 0.00 0.00 0.02
0.01 0.01 0.01 0.00 0.00 0.00 0.00 0.00 0.00 0.00 0.00 0.00 0.00 0.00 0.01 0.01 0.01 0.03 0.07 0.14 0.18 0.15 0.10 0.08 0.05 0.01 0.00 0.00 0.00 0.00 0.00 0.00
0.01 0.00 0.01 0.00 0.00 0.00 0.00 0.00 0.00 0.00 0.00 0.00 0.00 0.00 0.00 0.02 0.03 0.04 0.04 0.12 0.18 0.16 0.15 0.14 0.07 0.03 0.01 0.00 0.00 0.00 0.00 0.00
0.00 0.00 0.00 0.00 0.00 0.00 0.00 0.00 0.00 0.00 0.00 0.00 0.00 0.00 0.00 0.01 0.02 0.04 0.04 0.08 0.15 0.22 0.11 0.08 0.07 0.06 0.05 0.01 0.00 0.00 0.00 0.00
0.00 0.00 0.00 0.00 0.00 0.00 0.00 0.00 0.00 0.00 0.00 0.00 0.00 0.00 0.00 0.01 0.02 0.06 0.07 0.07 0.07 0.14 0.28 0.19 0.03 0.02 0.05 0.03 0.04 0.02 0.02 0.03
0.00 0.00 0.00 0.00 0.00 0.00 0.00 0.00 0.00 0.00 0.00 0.00 0.00 0.00 0.00 0.01 0.06 0.11 0.13 0.11 0.07 0.06 0.09 0.27 0.18 0.01 0.03 0.03 0.05 0.01 0.01 0.03

GFSFLT1_prec_precacc6_135.txt.gz
Total_Precipitation_Accumulation
0.00 0.00 0.00 0.00 0.00 0.00 0.00 0.00 0.02 0.06 0.07 0.11 0.11 0.08 0.04 0.01 0.01 0.00 0.00 0.01 0.02 0.02 0.02 0.01 0.01 0.03 0.09 0.09 0.08 0.05 0.03 0.02
0.00 0.00 0.00 0.00 0.00 0.00 0.00 0.00 0.00 0.07 0.07 0.08 0.06 0.04 0.03 0.03 0.05 0.01 0.00 0.02 0.10 0.15 0.16 0.14 0.09 0.05 0.13 0.18 0.08 0.05 0.01 0.01
0.00 0.00 0.00 0.00 0.00 0.00 0.00 0.00 0.00 0.01 0.02 0.02 0.03 0.01 0.00 0.01 0.05 0.01 0.01 0.02 0.06 0.10 0.12 0.19 0.22 0.23 0.14 0.10 0.02 0.01 0.01 0.00
0.00 0.00 0.00 0.00 0.00 0.00 0.00 0.00 0.00 0.00 0.01 0.04 0.02 0.00 0.00 0.00 0.00 0.00 0.01 0.02 0.08 0.08 0.11 0.14 0.19 0.23 0.17 0.12 0.04 0.03 0.03 0.02
0.00 0.00 0.00 0.00 0.00 0.00 0.00 0.00 0.00 0.00 0.00 0.01 0.00 0.00 0.00 0.00 0.00 0.00 0.04 0.07 0.12 0.11 0.11 0.10 0.10 0.12 0.13 0.10 0.06 0.06 0.04 0.03
0.00 0.00 0.00 0.00 0.00 0.00 0.00 0.00 0.00 0.00 0.00 0.00 0.01 0.00 0.00 0.00 0.00 0.01 0.03 0.03 0.05 0.06 0.07 0.10 0.09 0.08 0.10 0.15 0.11 0.08 0.03 0.03
0.00 0.00 0.00 0.00 0.00 0.00 0.00 0.00 0.00 0.00 0.00 0.00 0.00 0.00 0.00 0.00 0.00 0.03 0.07 0.05 0.05 0.07 0.07 0.09 0.09 0.10 0.10 0.14 0.13 0.10 0.07 0.04
0.00 0.00 0.00 0.00 0.00 0.00 0.00 0.00 0.00 0.00 0.00 0.00 0.00 0.00 0.00 0.02 0.03 0.03 0.07 0.08 0.06 0.10 0.09 0.08 0.09 0.12 0.09 0.14 0.08 0.05 0.06 0.05
0.00 0.00 0.00 0.00 0.00 0.01 0.00 0.00 0.00 0.00 0.00 0.00 0.00 0.00 0.00 0.01 0.03 0.02 0.02 0.02 0.03 0.07 0.10 0.09 0.08 0.14 0.13 0.11 0.08 0.04 0.04 0.05
0.01 0.02 0.01 0.01 0.01 0.01 0.00 0.00 0.00 0.00 0.00 0.00 0.00 0.00 0.00 0.00 0.01 0.03 0.03 0.03 0.02 0.01 0.03 0.03 0.04 0.10 0.06 0.09 0.06 0.06 0.07 0.06
0.09 0.08 0.05 0.03 0.02 0.01 0.00 0.00 0.00 0.00 0.00 0.00 0.00 0.00 0.00 0.00 0.00 0.01 0.03 0.03 0.03 0.02 0.02 0.03 0.05 0.07 0.08 0.09 0.05 0.07 0.05 0.06
0.09 0.08 0.04 0.02 0.01 0.00 0.00 0.00 0.00 0.00 0.00 0.00 0.00 0.00 0.00 0.00 0.00 0.00 0.03 0.07 0.11 0.06 0.03 0.04 0.04 0.07 0.09 0.07 0.05 0.05 0.04 0.03
0.21 0.18 0.17 0.06 0.00 0.00 0.00 0.00 0.00 0.00 0.00 0.00 0.00 0.00 0.00 0.00 0.00 0.00 0.03 0.06 0.10 0.13 0.12 0.07 0.04 0.03 0.02 0.03 0.03 0.03 0.02 0.02
0.40 0.34 0.19 0.07 0.01 0.00 0.00 0.00 0.00 0.00 0.00 0.00 0.00 0.00 0.00 0.00 0.00 0.00 0.02 0.05 0.11 0.11 0.12 0.12 0.07 0.03 0.02 0.01 0.01 0.02 0.02 0.01
0.15 0.14 0.12 0.06 0.02 0.00 0.00 0.00 0.00 0.00 0.00 0.00 0.00 0.00 0.00 0.00 0.00 0.00 0.00 0.04 0.11 0.11 0.08 0.11 0.11 0.05 0.02 0.01 0.01 0.00 0.01 0.01
0.15 0.09 0.03 0.02 0.01 0.00 0.00 0.00 0.00 0.00 0.00 0.00 0.00 0.00 0.00 0.00 0.00 0.00 0.00 0.01 0.08 0.11 0.12 0.12 0.10 0.07 0.05 0.01 0.00 0.00 0.00 0.00
0.04 0.02 0.00 0.00 0.00 0.00 0.00 0.00 0.00 0.00 0.00 0.00 0.00 0.00 0.00 0.00 0.00 0.00 0.00 0.01 0.09 0.19 0.10 0.09 0.07 0.05 0.05 0.04 0.01 0.00 0.00 0.00
0.00 0.00 0.00 0.00 0.00 0.00 0.00 0.00 0.00 0.00 0.00 0.00 0.00 0.00 0.00 0.00 0.00 0.00 0.00 0.01 0.03 0.12 0.27 0.21 0.07 0.11 0.15 0.07 0.03 0.00 0.00 0.00
0.00 0.00 0.00 0.00 0.00 0.00 0.00 0.00 0.00 0.00 0.00 0.00 0.00 0.00 0.00 0.00 0.00 0.01 0.02 0.01 0.04 0.05 0.08 0.29 0.58 0.32 0.14 0.22 0.14 0.01 0.00 0.00

GFSFLT1_prec_precacc6_138.txt.gz
Total_Precipitation_Accumulation
0.00 0.00 0.00 0.00 0.00 0.00 0.00 0.00 0.00 0.00 0.02 0.08 0.09 0.06 0.04 0.02 0.02 0.01 0.00 0.00 0.00 0.01 0.01 0.01 0.01 0.00 0.01 0.04 0.08 0.10 0.08 0.02
0.00 0.00 0.00 0.00 0.00 0.00 0.00 0.00 0.00 0.00 0.02 0.04 0.04 0.02 0.02 0.03 0.07 0.06 0.03 0.00 0.00 0.01 0.03 0.06 0.07 0.02 0.03 0.14 0.13 0.07 0.05 0.02
0.00 0.00 0.00 0.00 0.00 0.00 0.00 0.00 0.00 0.01 0.01 0.02 0.02 0.03 0.05 0.10 0.14 0.08 0.01 0.02 0.00 0.01 0.03 0.08 0.16 0.22 0.14 0.18 0.20 0.13 0.03 0.02
0.00 0.00 0.00 0.00 0.00 0.00 0.00 0.00 0.00 0.00 0.02 0.07 0.08 0.13 0.13 0.12 0.08 0.05 0.08 0.08 0.09 0.04 0.02 0.06 0.17 0.24 0.25 0.27 0.24 0.14 0.06 0.04
0.00 0.00 0.00 0.00 0.00 0.00 0.00 0.00 0.01 0.02 0.06 0.08 0.07 0.02 0.04 0.06 0.07 0.09 0.15 0.12 0.13 0.10 0.07 0.05 0.05 0.09 0.12 0.14 0.21 0.18 0.09 0.04
0.00 0.00 0.00 0.00 0.00 0.00 0.00 0.00 0.01 0.03 0.05 0.06 0.08 0.03 0.01 0.01 0.01 0.02 0.04 0.05 0.08 0.06 0.09 0.05 0.04 0.04 0.06 0.12 0.15 0.13 0.08 0.04
0.00 0.00 0.00 0.00 0.00 0.00 0.00 0.00 0.00 0.01 0.02 0.04 0.02 0.02 0.01 0.00 0.00 0.01 0.05 0.06 0.04 0.06 0.07 0.05 0.05 0.05 0.04 0.11 0.18 0.16 0.20 0.13
0.00 0.00 0.00 0.01 0.00 0.00 0.01 0.01 0.00 0.00 0.00 0.01 0.01 0.00 0.00 0.00 0.00 0.01 0.05 0.06 0.05 0.10 0.12 0.08 0.06 0.05 0.07 0.10 0.08 0.08 0.13 0.15
0.00 0.00 0.01 0.03 0.07 0.08 0.08 0.05 0.02 0.01 0.01 0.01 0.00 0.00 0.00 0.00 0.00 0.00 0.01 0.02 0.05 0.09 0.13 0.12 0.11 0.08 0.10 0.10 0.09 0.05 0.06 0.10
0.01 0.02 0.04 0.04 0.05 0.07 0.04 0.03 0.01 0.00 0.00 0.00 0.00 0.00 0.00 0.00 0.00 0.00 0.00 0.00 0.01 0.02 0.06 0.06 0.07 0.08 0.08 0.11 0.08 0.06 0.07 0.06
0.16 0.22 0.12 0.09 0.06 0.03 0.01 0.00 0.00 0.00 0.00 0.00 0.00 0.00 0.00 0.00 0.00 0.00 0.00 0.00 0.01 0.01 0.02 0.04 0.04 0.04 0.05 0.10 0.05 0.07 0.06 0.06
0.23 0.53 0.36 0.12 0.06 0.03 0.01 0.00 0.00 0.00 0.00 0.00 0.00 0.00 0.00 0.00 0.00 0.00 0.00 0.00 0.02 0.02 0.02 0.05 0.05 0.07 0.08 0.06 0.05 0.05 0.04 0.05
0.41 0.69 0.91 0.27 0.07 0.03 0.01 0.00 0.00 0.00 0.00 0.00 0.00 0.00 0.00 0.00 0.00 0.00 0.00 0.00 0.01 0.04 0.07 0.06 0.04 0.05 0.08 0.06 0.04 0.03 0.03 0.04
0.84 1.02 1.12 0.49 0.15 0.04 0.02 0.00 0.00 0.00 0.00 0.00 0.00 0.00 0.00 0.00 0.00 0.00 0.00 0.00 0.00 0.01 0.05 0.09 0.07 0.05 0.06 0.05 0.04 0.04 0.05 0.04
0.66 0.83 1.04 0.75 0.44 0.21 0.02 0.01 0.00 0.00 0.00 0.00 0.00 0.00 0.00 0.00 0.00 0.00 0.00 0.00 0.00 0.01 0.02 0.07 0.07 0.05 0.07 0.06 0.04 0.02 0.01 0.02
0.36 0.41 0.29 0.17 0.10 0.05 0.01 0.00 0.00 0.00 0.00 0.00 0.00 0.00 0.00 0.00 0.00 0.00 0.00 0.00 0.00 0.00 0.02 0.03 0.04 0.05 0.06 0.06 0.04 0.03 0.01 0.00
0.04 0.03 0.01 0.01 0.00 0.00 0.00 0.00 0.00 0.00 0.00 0.00 0.00 0.00 0.00 0.00 0.00 0.00 0.00 0.00 0.00 0.00 0.01 0.03 0.05 0.04 0.05 0.06 0.07 0.07 0.05 0.01
0.00 0.00 0.00 0.00 0.00 0.00 0.00 0.00 0.00 0.00 0.00 0.00 0.00 0.00 0.00 0.00 0.00 0.00 0.00 0.00 0.00 0.00 0.00 0.02 0.04 0.10 0.14 0.08 0.10 0.10 0.08 0.05
0.00 0.00 0.00 0.00 0.00 0.00 0.00 0.00 0.00 0.00 0.00 0.00 0.00 0.00 0.00 0.00 0.00 0.00 0.00 0.00 0.00 0.00 0.00 0.02 0.40 0.32 0.15 0.25 0.33 0.18 0.11 0.07

GFSFLT1_prec_precacc6_141.txt.gz
Total_Precipitation_Accumulation
0.00 0.00 0.00 0.00 0.00 0.00 0.00 0.00 0.00 0.00 0.00 0.00 0.01 0.00 0.01 0.00 0.01 0.01 0.00 0.00 0.00 0.01 0.00 0.00 0.00 0.00 0.00 0.00 0.01 0.09 0.12 0.03
0.00 0.00 0.00 0.00 0.00 0.00 0.00 0.00 0.00 0.00 0.00 0.00 0.00 0.00 0.00 0.03 0.05 0.08 0.03 0.00 0.00 0.00 0.00 0.00 0.00 0.01 0.00 0.04 0.06 0.05 0.09 0.06
0.00 0.00 0.00 0.00 0.00 0.00 0.00 0.00 0.00 0.00 0.00 0.00 0.01 0.02 0.07 0.16 0.17 0.12 0.02 0.02 0.01 0.01 0.01 0.01 0.01 0.03 0.04 0.12 0.21 0.18 0.08 0.12
0.00 0.00 0.00 0.00 0.00 0.00 0.00 0.00 0.00 0.00 0.01 0.03 0.08 0.15 0.22 0.25 0.18 0.20 0.19 0.22 0.12 0.09 0.05 0.02 0.03 0.07 0.11 0.20 0.25 0.20 0.12 0.09
0.00 0.00 0.00 0.00 0.00 0.00 0.00 0.00 0.01 0.02 0.06 0.08 0.10 0.04 0.05 0.06 0.07 0.10 0.19 0.23 0.27 0.30 0.21 0.15 0.10 0.09 0.07 0.13 0.27 0.26 0.20 0.07
0.00 0.00 0.00 0.00 0.00 0.00 0.00 0.00 0.01 0.03 0.05 0.09 0.11 0.13 0.16 0.08 0.06 0.02 0.03 0.06 0.12 0.14 0.23 0.19 0.11 0.09 0.05 0.06 0.10 0.12 0.11 0.05
0.00 0.00 0.00 0.00 0.00 0.00 0.00 0.02 0.04 0.04 0.06 0.10 0.10 0.10 0.10 0.05 0.09 0.14 0.12 0.06 0.03 0.01 0.04 0.04 0.05 0.06 0.03 0.05 0.09 0.10 0.17 0.14
0.00 0.00 0.00 0.01 0.01 0.01 0.04 0.06 0.08 0.13 0.15 0.14 0.13 0.09 0.08 0.13 0.11 0.08 0.10 0.11 0.07 0.05 0.07 0.07 0.06 0.06 0.05 0.04 0.04 0.05 0.09 0.14
0.00 0.01 0.03 0.05 0.10 0.13 0.16 0.13 0.11 0.12 0.11 0.09 0.08 0.02 0.00 0.02 0.12 0.06 0.00 0.02 0.04 0.05 0.05 0.05 0.08 0.08 0.07 0.06 0.04 0.04 0.04 0.08
0.06 0.12 0.10 0.09 0.09 0.12 0.16 0.13 0.08 0.06 0.04 0.01 0.01 0.00 0.00 0.00 0.00 0.00 0.00 0.00 0.00 0.02 0.05 0.04 0.06 0.08 0.08 0.07 0.04 0.03 0.03 0.04
0.24 0.31 0.23 0.16 0.11 0.07 0.07 0.10 0.07 0.03 0.01 0.00 0.00 0.00 0.00 0.00 0.00 0.00 0.00 0.00 0.00 0.00 0.00 0.02 0.03 0.04 0.04 0.07 0.05 0.04 0.04 0.04
0.39 0.72 0.58 0.28 0.11 0.05 0.02 0.02 0.05 0.03 0.01 0.00 0.00 0.00 0.00 0.00 0.00 0.00 0.00 0.00 0.00 0.00 0.00 0.02 0.04 0.05 0.04 0.03 0.02 0.02 0.03 0.05
0.56 0.91 1.30 0.89 0.45 0.13 0.02 0.00 0.00 0.00 0.00 0.00 0.00 0.00 0.00 0.00 0.00 0.00 0.00 0.00 0.00 0.00 0.00 0.01 0.01 0.03 0.07 0.07 0.06 0.02 0.02 0.02
0.84 1.04 1.42 1.41 0.95 0.51 0.16 0.07 0.01 0.00 0.00 0.00 0.00 0.00 0.00 0.00 0.00 0.00 0.00 0.00 0.00 0.00 0.00 0.00 0.01 0.03 0.06 0.06 0.07 0.06 0.05 0.03
0.69 0.84 1.16 1.36 1.12 0.79 0.31 0.16 0.06 0.02 0.00 0.00 0.00 0.00 0.00 0.00 0.00 0.00 0.00 0.00 0.00 0.00 0.00 0.00 0.00 0.01 0.05 0.07 0.08 0.08 0.04 0.03
0.27 0.37 0.30 0.33 0.30 0.17 0.10 0.06 0.01 0.00 0.00 0.00 0.00 0.00 0.00 0.00 0.00 0.00 0.00 0.00 0.00 0.00 0.00 0.00 0.00 0.01 0.03 0.06 0.05 0.08 0.11 0.13
0.01 0.01 0.01 0.01 0.03 0.03 0.01 0.00 0.00 0.00 0.00 0.00 0.00 0.00 0.00 0.00 0.00 0.00 0.00 0.00 0.00 0.00 0.00 0.00 0.00 0.01 0.03 0.05 0.08 0.09 0.09 0.10
0.00 0.00 0.00 0.00 0.00 0.00 0.01 0.00 0.00 0.00 0.00 0.00 0.00 0.00 0.00 0.00 0.00 0.00 0.00 0.00 0.00 0.00 0.00 0.00 0.00 0.00 0.02 0.02 0.10 0.11 0.10 0.12
0.00 0.00 0.00 0.00 0.00 0.00 0.00 0.00 0.00 0.00 0.00 0.00 0.00 0.00 0.00 0.00 0.00 0.00 0.00 0.00 0.00 0.00 0.00 0.00 0.00 0.00 0.02 0.03 0.20 0.18 0.13 0.11

GFSFLT1_prec_precacc6_144.txt.gz
Total_Precipitation_Accumulation
0.00 0.00 0.00 0.00 0.00 0.00 0.00 0.00 0.00 0.00 0.00 0.00 0.00 0.00 0.00 0.00 0.00 0.00 0.00 0.00 0.00 0.00 0.00 0.00 0.00 0.00 0.00 0.00 0.00 0.04 0.07 0.02
0.00 0.00 0.00 0.00 0.00 0.00 0.00 0.00 0.00 0.00 0.00 0.00 0.00 0.00 0.00 0.02 0.02 0.03 0.01 0.00 0.00 0.01 0.01 0.01 0.01 0.01 0.01 0.01 0.02 0.02 0.06 0.05
0.00 0.00 0.00 0.00 0.00 0.00 0.00 0.00 0.00 0.00 0.00 0.00 0.00 0.00 0.02 0.07 0.09 0.06 0.02 0.01 0.01 0.01 0.01 0.01 0.01 0.02 0.02 0.03 0.05 0.08 0.06 0.15
0.00 0.00 0.00 0.00 0.00 0.00 0.00 0.00 0.00 0.00 0.00 0.00 0.02 0.03 0.10 0.14 0.11 0.16 0.13 0.16 0.09 0.10 0.08 0.06 0.05 0.08 0.06 0.06 0.08 0.12 0.12 0.13
0.00 0.00 0.00 0.00 0.00 0.00 0.00 0.00 0.00 0.00 0.00 0.01 0.04 0.02 0.01 0.00 0.00 0.02 0.07 0.15 0.22 0.31 0.29 0.30 0.34 0.34 0.18 0.09 0.16 0.18 0.20 0.10
0.00 0.00 0.00 0.00 0.00 0.00 0.00 0.00 0.00 0.00 0.00 0.03 0.04 0.11 0.16 0.09 0.07 0.02 0.02 0.03 0.07 0.11 0.17 0.27 0.33 0.28 0.18 0.12 0.08 0.11 0.09 0.07
0.00 0.00 0.00 0.00 0.00 0.00 0.01 0.02 0.04 0.03 0.05 0.07 0.10 0.13 0.15 0.10 0.14 0.18 0.18 0.15 0.14 0.17 0.12 0.06 0.05 0.08 0.09 0.09 0.08 0.07 0.08 0.09
0.00 0.00 0.00 0.00 0.01 0.03 0.05 0.07 0.08 0.14 0.16 0.15 0.18 0.27 0.26 0.20 0.16 0.14 0.21 0.41 0.52 0.51 0.39 0.24 0.09 0.04 0.03 0.05 0.05 0.05 0.07 0.07
0.00 0.02 0.03 0.04 0.07 0.10 0.14 0.13 0.13 0.15 0.15 0.13 0.16 0.15 0.15 0.08 0.13 0.08 0.02 0.03 0.09 0.18 0.27 0.30 0.22 0.09 0.05 0.05 0.04 0.04 0.04 0.05
0.06 0.14 0.17 0.16 0.12 0.13 0.18 0.17 0.13 0.11 0.11 0.08 0.10 0.11 0.15 0.11 0.06 0.03 0.02 0.01 0.01 0.05 0.06 0.06 0.05 0.07 0.08 0.06 0.04 0.03 0.03 0.03
0.17 0.23 0.27 0.23 0.19 0.15 0.13 0.14 0.15 0.11 0.06 0.03 0.03 0.03 0.06 0.06 0.02 0.01 0.01 0.00 0.00 0.00 0.01 0.02 0.03 0.05 0.05 0.08 0.08 0.07 0.07 0.04
0.30 0.36 0.44 0.37 0.21 0.13 0.09 0.07 0.14 0.21 0.09 0.03 0.01 0.00 0.00 0.01 0.00 0.00 0.00 0.00 0.00 0.00 0.00 0.00 0.01 0.02 0.03 0.06 0.07 0.07 0.07 0.06
0.36 0.46 0.67 0.80 0.54 0.30 0.16 0.06 0.01 0.17 0.39 0.16 0.03 0.00 0.00 0.00 0.00 0.00 0.00 0.00 0.00 0.00 0.00 0.00 0.00 0.01 0.02 0.05 0.08 0.05 0.04 0.05
0.42 0.38 0.55 1.08 0.97 0.69 0.42 0.26 0.09 0.01 0.04 0.17 0.18 0.08 0.01 0.00 0.00 0.00 0.00 0.00 0.00 0.00 0.00 0.00 0.00 0.00 0.02 0.03 0.04 0.07 0.06 0.05
0.17 0.17 0.27 0.71 0.84 0.80 0.52 0.41 0.24 0.07 0.00 0.00 0.01 0.01 0.01 0.00 0.00 0.00 0.00 0.00 0.00 0.00 0.00 0.00 0.00 0.00 0.00 0.02 0.05 0.08 0.06 0.08
0.05 0.04 0.04 0.17 0.26 0.25 0.22 0.15 0.10 0.04 0.01 0.00 0.00 0.00 0.00 0.00 0.00 0.00 0.00 0.00 0.00 0.00 0.00 0.00 0.00 0.00 0.00 0.01 0.01 0.06 0.12 0.19
0.00 0.00 0.00 0.00 0.02 0.04 0.05 0.05 0.02 0.00 0.00 0.00 0.00 0.00 0.00 0.00 0.00 0.00 0.00 0.00 0.00 0.00 0.00 0.00 0.00 0.00 0.00 0.02 0.02 0.01 0.05 0.10
0.00 0.00 0.00 0.00 0.00 0.00 0.01 0.02 0.01 0.00 0.00 0.00 0.00 0.00 0.00 0.00 0.00 0.00 0.00 0.00 0.00 0.00 0.00 0.00 0.00 0.00 0.00 0.00 0.02 0.01 0.02 0.07
0.00 0.00 0.00 0.00 0.00 0.00 0.00 0.00 0.01 0.01 0.01 0.00 0.00 0.00 0.00 0.00 0.00 0.00 0.00 0.00 0.00 0.00 0.00 0.00 0.00 0.00 0.00 0.00 0.00 0.00 0.02 0.04

GFSFLT1_prec_precacc6_147.txt.gz
Total_Precipitation_Accumulation
0.00 0.00 0.00 0.00 0.00 0.00 0.00 0.00 0.00 0.00 0.00 0.00 0.00 0.00 0.00 0.00 0.00 0.00 0.00 0.00 0.00 0.00 0.00 0.00 0.00 0.01 0.00 0.00 0.00 0.00 0.01 0.00
0.00 0.00 0.00 0.00 0.00 0.00 0.00 0.00 0.00 0.00 0.00 0.00 0.00 0.00 0.00 0.00 0.00 0.00 0.00 0.00 0.00 0.01 0.01 0.01 0.01 0.01 0.01 0.01 0.01 0.01 0.01 0.01
0.00 0.00 0.00 0.00 0.00 0.00 0.00 0.00 0.00 0.00 0.00 0.00 0.00 0.00 0.00 0.00 0.00 0.01 0.01 0.00 0.00 0.01 0.01 0.01 0.01 0.02 0.02 0.05 0.03 0.03 0.03 0.06
0.00 0.00 0.00 0.00 0.00 0.00 0.00 0.00 0.00 0.00 0.00 0.00 0.00 0.00 0.00 0.00 0.01 0.01 0.00 0.00 0.01 0.04 0.05 0.06 0.04 0.05 0.07 0.07 0.07 0.07 0.07 0.10
0.00 0.00 0.00 0.00 0.00 0.00 0.00 0.00 0.00 0.00 0.00 0.00 0.00 0.00 0.00 0.00 0.00 0.00 0.01 0.00 0.01 0.06 0.11 0.19 0.28 0.30 0.26 0.19 0.16 0.14 0.19 0.15
0.00 0.00 0.00 0.00 0.00 0.00 0.00 0.00 0.00 0.00 0.00 0.00 0.00 0.01 0.01 0.01 0.02 0.01 0.02 0.02 0.02 0.02 0.03 0.15 0.34 0.25 0.16 0.18 0.20 0.20 0.18 0.20
0.00 0.00 0.00 0.00 0.00 0.00 0.00 0.00 0.01 0.00 0.00 0.01 0.02 0.05 0.07 0.07 0.05 0.05 0.10 0.14 0.15 0.22 0.20 0.16 0.14 0.12 0.10 0.11 0.09 0.09 0.07 0.08
0.00 0.00 0.00 0.00 0.01 0.02 0.02 0.02 0.01 0.02 0.02 0.02 0.07 0.20 0.22 0.15 0.12 0.14 0.23 0.42 0.54 0.68 0.57 0.47 0.36 0.40 0.42 0.25 0.08 0.05 0.07 0.07
0.00 0.00 0.01 0.03 0.04 0.05 0.06 0.06 0.05 0.05 0.07 0.09 0.14 0.16 0.19 0.15 0.09 0.12 0.15 0.16 0.23 0.40 0.50 0.51 0.63 0.65 0.61 0.48 0.08 0.04 0.05 0.05
0.00 0.02 0.09 0.10 0.07 0.07 0.08 0.10 0.08 0.07 0.08 0.09 0.13 0.19 0.27 0.22 0.16 0.09 0.09 0.07 0.06 0.11 0.16 0.14 0.15 0.27 0.24 0.20 0.18 0.11 0.08 0.04
0.03 0.06 0.10 0.13 0.13 0.12 0.08 0.07 0.12 0.12 0.09 0.08 0.08 0.10 0.14 0.15 0.15 0.09 0.07 0.05 0.04 0.02 0.04 0.05 0.06 0.05 0.06 0.11 0.14 0.15 0.16 0.09
0.08 0.10 0.18 0.18 0.15 0.12 0.11 0.10 0.14 0.24 0.17 0.16 0.15 0.12 0.11 0.07 0.06 0.04 0.02 0.02 0.02 0.01 0.01 0.00 0.01 0.01 0.05 0.08 0.09 0.09 0.14 0.13
0.05 0.08 0.11 0.13 0.16 0.21 0.17 0.11 0.08 0.24 0.54 0.37 0.24 0.20 0.12 0.08 0.03 0.02 0.01 0.01 0.00 0.00 0.00 0.00 0.00 0.00 0.01 0.03 0.07 0.07 0.07 0.08
0.04 0.04 0.06 0.09 0.15 0.23 0.30 0.26 0.17 0.10 0.14 0.45 0.47 0.44 0.22 0.05 0.01 0.01 0.00 0.00 0.00 0.00 0.00 0.00 0.00 0.00 0.00 0.00 0.01 0.03 0.06 0.08
0.01 0.02 0.03 0.05 0.15 0.22 0.24 0.30 0.31 0.19 0.11 0.10 0.14 0.24 0.36 0.26 0.06 0.00 0.00 0.00 0.00 0.00 0.00 0.00 0.00 0.00 0.00 0.00 0.01 0.02 0.03 0.06
0.00 0.00 0.00 0.00 0.04 0.12 0.13 0.12 0.15 0.15 0.07 0.05 0.02 0.03 0.04 0.06 0.14 0.07 0.03 0.01 0.00 0.00 0.00 0.00 0.00 0.00 0.00 0.00 0.00 0.01 0.02 0.06
0.00 0.00 0.00 0.00 0.00 0.01 0.04 0.05 0.04 0.03 0.02 0.00 0.00 0.00 0.00 0.00 0.00 0.00 0.01 0.01 0.00 0.00 0.00 0.00 0.00 0.00 0.00 0.00 0.00 0.00 0.00 0.01
0.00 0.00 0.00 0.00 0.00 0.00 0.00 0.02 0.01 0.00 0.00 0.00 0.00 0.00 0.00 0.00 0.00 0.00 0.00 0.00 0.00 0.00 0.00 0.00 0.00 0.00 0.00 0.00 0.00 0.00 0.00 0.00
0.00 0.00 0.00 0.00 0.00 0.00 0.00 0.00 0.01 0.01 0.01 0.00 0.00 0.00 0.00 0.00 0.00 0.00 0.00 0.00 0.00 0.00 0.00 0.00 0.00 0.00 0.00 0.00 0.00 0.00 0.00 0.00

GFSFLT1_prec_precacc6_150.txt.gz
Total_Precipitation_Accumulation
0.00 0.00 0.00 0.00 0.00 0.00 0.00 0.00 0.00 0.00 0.00 0.01 0.04 0.14 0.02 0.00 0.00 0.00 0.00 0.00 0.00 0.00 0.00 0.00 0.00 0.02 0.00 0.00 0.00 0.00 0.00 0.00
0.00 0.00 0.00 0.00 0.00 0.00 0.00 0.00 0.00 0.00 0.00 0.00 0.00 0.00 0.00 0.00 0.00 0.00 0.00 0.01 0.02 0.01 0.00 0.00 0.01 0.01 0.00 0.02 0.00 0.01 0.00 0.00
0.00 0.00 0.00 0.00 0.00 0.00 0.00 0.00 0.00 0.00 0.00 0.00 0.00 0.00 0.00 0.00 0.00 0.00 0.00 0.00 0.11 0.06 0.01 0.01 0.01 0.01 0.02 0.05 0.03 0.01 0.02 0.01
0.00 0.00 0.00 0.00 0.00 0.00 0.00 0.00 0.00 0.00 0.00 0.00 0.00 0.00 0.00 0.00 0.00 0.00 0.00 0.00 0.01 0.13 0.02 0.04 0.02 0.03 0.03 0.03 0.03 0.04 0.03 0.05
0.00 0.00 0.00 0.00 0.00 0.00 0.00 0.00 0.00 0.00 0.00 0.00 0.00 0.00 0.00 0.00 0.00 0.00 0.00 0.00 0.01 0.05 0.09 0.05 0.04 0.05 0.17 0.20 0.13 0.10 0.13 0.13
0.00 0.00 0.00 0.00 0.00 0.00 0.00 0.00 0.00 0.00 0.00 0.00 0.00 0.00 0.00 0.00 0.00 0.00 0.00 0.01 0.02 0.04 0.12 0.10 0.14 0.15 0.15 0.29 0.25 0.23 0.29 0.34
0.00 0.00 0.00 0.00 0.00 0.00 0.00 0.00 0.00 0.00 0.00 0.00 0.00 0.00 0.00 0.01 0.01 0.02 0.02 0.03 0.05 0.09 0.14 0.18 0.23 0.24 0.21 0.23 0.18 0.14 0.28 0.28
0.00 0.00 0.00 0.00 0.00 0.00 0.00 0.00 0.00 0.01 0.01 0.01 0.01 0.02 0.04 0.07 0.07 0.10 0.13 0.16 0.15 0.24 0.26 0.34 0.39 0.57 0.72 0.69 0.49 0.38 0.33 0.29
0.00 0.00 0.00 0.00 0.00 0.00 0.01 0.01 0.01 0.00 0.01 0.03 0.05 0.03 0.05 0.09 0.09 0.12 0.16 0.19 0.21 0.33 0.33 0.30 0.56 0.87 0.94 1.12 0.98 0.72 0.62 0.29
0.00 0.00 0.00 0.00 0.00 0.01 0.02 0.03 0.02 0.02 0.02 0.02 0.04 0.09 0.13 0.12 0.13 0.12 0.12 0.12 0.09 0.13 0.22 0.21 0.29 0.42 0.58 0.71 0.68 0.49 0.42 0.32
0.00 0.00 0.00 0.00 0.00 0.01 0.02 0.03 0.05 0.05 0.05 0.06 0.08 0.11 0.13 0.13 0.15 0.14 0.15 0.14 0.12 0.11 0.09 0.11 0.15 0.18 0.20 0.21 0.21 0.18 0.16 0.11
0.00 0.00 0.00 0.00 0.00 0.02 0.03 0.04 0.06 0.06 0.12 0.17 0.15 0.15 0.16 0.16 0.16 0.12 0.11 0.12 0.16 0.13 0.09 0.06 0.06 0.08 0.12 0.12 0.10 0.09 0.12 0.12
0.00 0.00 0.00 0.00 0.00 0.01 0.03 0.05 0.07 0.08 0.16 0.27 0.28 0.26 0.24 0.18 0.19 0.20 0.17 0.13 0.14 0.11 0.06 0.03 0.03 0.05 0.06 0.07 0.09 0.10 0.10 0.09
0.00 0.00 0.00 0.00 0.00 0.01 0.02 0.07 0.10 0.10 0.11 0.32 0.38 0.45 0.33 0.28 0.25 0.20 0.25 0.19 0.09 0.07 0.04 0.02 0.01 0.01 0.00 0.00 0.01 0.02 0.03 0.05
0.00 0.00 0.00 0.00 0.00 0.00 0.01 0.05 0.14 0.16 0.13 0.14 0.20 0.31 0.47 0.51 0.36 0.25 0.19 0.15 0.05 0.02 0.01 0.01 0.00 0.00 0.00 0.00 0.00 0.00 0.00 0.00
0.00 0.00 0.00 0.00 0.00 0.00 0.00 0.02 0.07 0.14 0.10 0.10 0.08 0.07 0.10 0.17 0.36 0.42 0.29 0.12 0.02 0.00 0.00 0.00 0.00 0.00 0.00 0.00 0.00 0.00 0.00 0.00
0.00 0.00 0.00 0.00 0.00 0.00 0.00 0.00 0.02 0.03 0.04 0.04 0.03 0.01 0.00 0.00 0.02 0.07 0.20 0.23 0.12 0.03 0.00 0.00 0.00 0.00 0.00 0.00 0.00 0.00 0.00 0.00
0.00 0.00 0.00 0.00 0.00 0.00 0.00 0.00 0.00 0.00 0.00 0.01 0.01 0.01 0.00 0.00 0.00 0.00 0.00 0.01 0.05 0.07 0.04 0.01 0.00 0.00 0.00 0.00 0.00 0.00 0.00 0.00
0.00 0.00 0.00 0.00 0.00 0.00 0.00 0.00 0.00 0.00 0.00 0.00 0.00 0.00 0.00 0.00 0.00 0.00 0.00 0.00 0.00 0.00 0.00 0.00 0.00 0.00 0.00 0.00 0.00 0.00 0.00 0.00

GFSFLT1_prec_precacc6_153.txt.gz
Total_Precipitation_Accumulation
0.00 0.00 0.00 0.00 0.00 0.00 0.00 0.00 0.00 0.00 0.00 0.01 0.05 0.25 0.39 0.35 0.23 0.16 0.11 0.07 0.07 0.05 0.01 0.00 0.01 0.01 0.00 0.01 0.01 0.00 0.00 0.00
0.00 0.00 0.00 0.00 0.00 0.00 0.00 0.00 0.00 0.00 0.00 0.00 0.00 0.00 0.01 0.16 0.34 0.13 0.06 0.13 0.19 0.09 0.02 0.02 0.05 0.01 0.00 0.17 0.10 0.03 0.01 0.00
0.00 0.00 0.00 0.00 0.00 0.00 0.00 0.00 0.00 0.00 0.00 0.00 0.00 0.00 0.00 0.00 0.00 0.03 0.07 0.11 0.42 0.26 0.14 0.09 0.06 0.02 0.05 0.28 0.22 0.13 0.04 0.04
0.00 0.00 0.00 0.00 0.00 0.00 0.00 0.00 0.00 0.00 0.00 0.00 0.00 0.00 0.00 0.00 0.00 0.00 0.02 0.05 0.09 0.38 0.11 0.23 0.31 0.26 0.17 0.26 0.32 0.19 0.11 0.09
0.00 0.00 0.00 0.00 0.00 0.00 0.00 0.00 0.00 0.00 0.00 0.00 0.00 0.00 0.00 0.00 0.00 0.00 0.00 0.02 0.05 0.21 0.34 0.17 0.15 0.24 0.31 0.24 0.21 0.18 0.18 0.19
0.00 0.00 0.00 0.00 0.00 0.00 0.00 0.00 0.00 0.00 0.00 0.00 0.00 0.00 0.00 0.00 0.00 0.00 0.00 0.00 0.01 0.06 0.30 0.19 0.13 0.29 0.34 0.42 0.36 0.33 0.32 0.33
0.00 0.00 0.00 0.00 0.00 0.00 0.00 0.00 0.00 0.00 0.00 0.00 0.00 0.00 0.00 0.00 0.00 0.00 0.00 0.01 0.03 0.08 0.18 0.21 0.27 0.35 0.37 0.55 0.47 0.43 0.66 0.77
0.00 0.00 0.00 0.00 0.00 0.00 0.00 0.00 0.00 0.00 0.00 0.00 0.00 0.00 0.00 0.00 0.00 0.01 0.02 0.06 0.09 0.07 0.13 0.24 0.26 0.33 0.55 0.66 0.76 0.65 0.64 0.64
0.00 0.00 0.00 0.00 0.00 0.00 0.00 0.00 0.00 0.00 0.00 0.00 0.00 0.00 0.00 0.00 0.01 0.02 0.03 0.06 0.07 0.12 0.12 0.18 0.27 0.41 0.55 0.86 1.12 0.91 0.79 0.47
0.00 0.00 0.00 0.00 0.00 0.00 0.00 0.00 0.00 0.00 0.00 0.00 0.00 0.00 0.00 0.01 0.02 0.06 0.07 0.08 0.05 0.08 0.16 0.18 0.25 0.30 0.53 0.73 0.70 0.51 0.46 0.43
0.00 0.00 0.00 0.00 0.00 0.00 0.00 0.00 0.00 0.00 0.00 0.00 0.02 0.04 0.05 0.04 0.04 0.08 0.12 0.12 0.10 0.13 0.08 0.11 0.16 0.21 0.24 0.21 0.20 0.18 0.14 0.10
0.00 0.00 0.00 0.00 0.00 0.00 0.00 0.00 0.00 0.00 0.02 0.03 0.02 0.03 0.07 0.13 0.14 0.14 0.15 0.14 0.17 0.16 0.14 0.12 0.13 0.15 0.17 0.14 0.15 0.19 0.18 0.11
0.00 0.00 0.00 0.00 0.00 0.00 0.00 0.00 0.00 0.00 0.01 0.06 0.08 0.08 0.15 0.16 0.22 0.24 0.21 0.20 0.20 0.19 0.18 0.17 0.21 0.21 0.19 0.18 0.12 0.11 0.12 0.10
0.00 0.00 0.00 0.00 0.00 0.00 0.00 0.00 0.00 0.01 0.01 0.04 0.09 0.11 0.16 0.30 0.34 0.30 0.34 0.29 0.24 0.27 0.26 0.22 0.19 0.20 0.09 0.14 0.12 0.04 0.04 0.04
0.00 0.00 0.00 0.00 0.00 0.00 0.00 0.00 0.01 0.01 0.02 0.06 0.08 0.10 0.14 0.31 0.42 0.40 0.31 0.31 0.33 0.27 0.31 0.34 0.22 0.15 0.07 0.05 0.07 0.03 0.01 0.01
0.00 0.00 0.00 0.00 0.00 0.00 0.00 0.00 0.00 0.02 0.04 0.05 0.07 0.06 0.07 0.15 0.31 0.52 0.46 0.29 0.21 0.24 0.22 0.22 0.19 0.17 0.07 0.03 0.01 0.01 0.00 0.00
0.00 0.00 0.00 0.00 0.00 0.00 0.00 0.00 0.00 0.00 0.02 0.04 0.03 0.03 0.03 0.03 0.04 0.10 0.27 0.40 0.34 0.15 0.10 0.09 0.07 0.07 0.04 0.02 0.01 0.00 0.00 0.00
0.00 0.00 0.00 0.00 0.00 0.00 0.00 0.00 0.00 0.00 0.00 0.01 0.01 0.01 0.03 0.02 0.03 0.02 0.01 0.02 0.10 0.18 0.16 0.09 0.01 0.02 0.02 0.01 0.01 0.00 0.00 0.00
0.00 0.00 0.00 0.00 0.00 0.00 0.00 0.00 0.00 0.00 0.00 0.00 0.00 0.00 0.00 0.00 0.00 0.00 0.00 0.00 0.00 0.00 0.02 0.07 0.06 0.03 0.01 0.00 0.00 0.00 0.00 0.00